Grand Junction, CO

12:32 PM MDT on October 23, 2019 (GMT -0600)
Walker

Weather History for KGJT - August, 2019

Change the Weather History Date:

Friday, August 23, 2019

  Actual Average Record
Temperature  
Mean Temperature 80 °F 74 °F  
Max Temperature 95 °F 89 °F 99 °F (1919)
Min Temperature 65 °F 60 °F 43 °F (1968)
Degree Days  
Heating Degree Days 0 0  
Month to date heating degree days 0 0  
Since 1 June heating degree days 25 23  
Since 1 July heating degree days 0 1  
Cooling Degree Days 15 9  
Month to date cooling degree days 334 261  
Year to date cooling degree days 1019 953  
Since 1 June cooling degree days 1007 902  
Growing Degree Days 32 (Base 50)    
Moisture  
Dew Point 31 °F    
Average Humidity 20    
Maximum Humidity 32    
Minimum Humidity 8    
Precipitation  
Precipitation 0.00 in 0.03 in 0.70 in (1895)
Month to date precipitation 0.14 0.68  
Year to date precipitation 6.86 5.58  
Snow  
Snow 0.00 in 0.00 in 0.00 in (2018)
Month to date snowfall 0.0 0.0  
Since 1 June snowfall 0.0 0.0  
Since 1 July snowfall 0.0 0.0  
Snow Depth 0.00 in    
Sea Level Pressure  
Sea Level Pressure 29.72 in    
Wind  
Wind Speed 10 mph (ESE)    
Max Wind Speed 22 mph    
Max Gust Speed 29 mph    
Visibility 10 miles    
Events      
T = Trace of Precipitation, MM = Missing Value Source: NWS Daily Summary

Daily Weather History Graph

Daily Weather History Graph

Search for Another Location

Airport or City:

Astronomy

Aug. 23, 2019 Rise Set
Actual Time 6:34 AM MDT 7:58 PM MDT
Civil Twilight 6:06 AM MDT 8:26 PM MDT
Nautical Twilight 5:32 AM MDT 8:59 PM MDT
Astronomical Twilight 4:57 AM MDT 9:34 PM MDT
Moon No Moon Rise 2:11 PM MDT
Length of Visible Light 14h 19m
Length of Day
13h 23m
Waning Gibbous, 49% of the Moon is Illuminated
Aug 23
Waning Gibbous
Aug 30
New
Sep 5
First Quarter
Sep 13
Full
Sep 21
Last Quarter

Hourly Weather History & Observations

Time (MDT) Temp. Dew Point Humidity Pressure Visibility Wind Dir Wind Speed Gust Speed Precip Events Conditions
12:53 AM 73.0 °F 37.9 °F 28% 29.68 in 10.0 mi East 13.8 mph - N/A   Clear
1:53 AM 73.0 °F 39.0 °F 29% 29.69 in 10.0 mi SE 13.8 mph - N/A   Clear
2:53 AM 72.0 °F 39.0 °F 30% 29.69 in 10.0 mi ESE 17.3 mph - N/A   Clear
3:53 AM 71.1 °F 37.9 °F 30% 29.70 in 10.0 mi ESE 12.7 mph - N/A   Clear
4:53 AM 68.0 °F 37.0 °F 32% 29.71 in 10.0 mi East 15.0 mph - N/A   Clear
5:53 AM 72.0 °F 37.0 °F 28% 29.71 in 10.0 mi ESE 23.0 mph 28.8 mph N/A   Clear
6:53 AM 70.0 °F 36.0 °F 29% 29.74 in 10.0 mi ESE 16.1 mph - N/A   Clear
7:53 AM 70.0 °F 37.0 °F 30% 29.77 in 10.0 mi ESE 15.0 mph - N/A   Clear
8:53 AM 73.0 °F 37.9 °F 28% 29.78 in 10.0 mi SE 13.8 mph - N/A   Clear
9:53 AM 78.1 °F 37.9 °F 24% 29.78 in 10.0 mi East 10.4 mph - N/A   Clear
10:53 AM 82.0 °F 39.0 °F 22% 29.78 in 10.0 mi SSE 9.2 mph - N/A   Clear
11:53 AM 88.0 °F 36.0 °F 16% 29.76 in 10.0 mi SSE 8.1 mph - N/A   Clear
12:53 PM 90.0 °F 36.0 °F 15% 29.75 in 10.0 mi WSW 8.1 mph - N/A   Clear
1:53 PM 91.9 °F 32.0 °F 12% 29.72 in 10.0 mi North 11.5 mph - N/A   Clear
2:53 PM 93.0 °F 28.0 °F 10% 29.71 in 10.0 mi NW 5.8 mph - N/A   Clear
3:53 PM 95.0 °F 27.0 °F 9% 29.68 in 10.0 mi West 9.2 mph - N/A   Clear
4:53 PM 93.9 °F 23.0 °F 8% 29.67 in 10.0 mi WNW 9.2 mph 17.3 mph N/A   Clear
5:53 PM 93.0 °F 25.0 °F 9% 29.65 in 10.0 mi WNW 12.7 mph - N/A   Clear
6:53 PM 91.0 °F 25.0 °F 9% 29.65 in 10.0 mi West 13.8 mph - N/A   Clear
7:53 PM 84.9 °F 27.0 °F 12% 29.68 in 10.0 mi West 5.8 mph - N/A   Clear
8:53 PM 73.9 °F 21.9 °F 14% 29.71 in 10.0 mi Calm Calm - N/A   Clear
9:53 PM 72.0 °F 21.0 °F 15% 29.73 in 10.0 mi ENE 3.5 mph - N/A   Clear
10:53 PM 69.1 °F 19.0 °F 15% 29.74 in 10.0 mi ENE 8.1 mph - N/A   Clear
11:53 PM 72.0 °F 21.0 °F 15% 29.74 in 10.0 mi Calm Calm - N/A   Clear